YV3077 SVBC-SVMP

Flight info

Callsign YV3077
Flight time N/A
Altitude 10500
Route DCT
Aircraft PA31/L-SDC/C

Departure

Time 2026-04-15 21:28
Airport General José Antonio Anzoategui International Airport (SVBC)

Arrival

Time N/A
Airport SVMP
Time Latitude Longitude Altitude Speed Heading
2026-04-15 21:21 10.10776 -64.68693 42 ft 0 kts 349°
2026-04-15 21:25 10.10779 -64.68693 42 ft 2 kts 351°
2026-04-15 21:25 10.10799 -64.68712 42 ft 8 kts 249°
2026-04-15 21:25 10.10718 -64.68710 42 ft 16 kts 165°
2026-04-15 21:26 10.10616 -64.68687 42 ft 13 kts 168°
2026-04-15 21:26 10.10525 -64.68667 43 ft 8 kts 166°
2026-04-15 21:26 10.10454 -64.68647 43 ft 12 kts 162°
2026-04-15 21:26 10.10371 -64.68630 43 ft 9 kts 215°
2026-04-15 21:27 10.10377 -64.68649 43 ft 0 kts 322°
2026-04-15 21:27 10.10480 -64.68726 43 ft 50 kts 314°
2026-04-15 21:27 10.10890 -64.69047 42 ft 93 kts 322°
2026-04-15 21:27 10.11429 -64.69450 152 ft 101 kts 330°
2026-04-15 21:28 10.12035 -64.69884 307 ft 110 kts 326°
2026-04-15 21:28 10.12623 -64.70426 495 ft 117 kts 314°
2026-04-15 21:28 10.12852 -64.71230 685 ft 127 kts 266°
2026-04-15 21:28 10.12533 -64.72065 852 ft 128 kts 244°
2026-04-15 21:29 10.12110 -64.72867 1014 ft 127 kts 242°
2026-04-15 21:29 10.11702 -64.73664 1172 ft 127 kts 250°
2026-04-15 21:29 10.11453 -64.74519 1331 ft 126 kts 261°
2026-04-15 21:29 10.11323 -64.75398 1491 ft 125 kts 268°
2026-04-15 21:30 10.11263 -64.76273 1640 ft 125 kts 271°
2026-04-15 21:30 10.11243 -64.77168 1805 ft 126 kts 273°
2026-04-15 21:30 10.11241 -64.78055 1970 ft 126 kts 274°
2026-04-15 21:30 10.11249 -64.78938 2133 ft 126 kts 273°
2026-04-15 21:31 10.11270 -64.80730 2468 ft 127 kts 273°
2026-04-15 21:31 10.11281 -64.81632 2639 ft 128 kts 272°
2026-04-15 21:32 10.11303 -64.83443 2991 ft 128 kts 272°
2026-04-15 21:32 10.11316 -64.84353 3169 ft 129 kts 272°
2026-04-15 21:32 10.11327 -64.85252 3351 ft 129 kts 272°
2026-04-15 21:32 10.11338 -64.86167 3536 ft 129 kts 271°
2026-04-15 21:33 10.11351 -64.87085 3724 ft 130 kts 271°
2026-04-15 21:33 10.11362 -64.87994 3911 ft 130 kts 271°
2026-04-15 21:33 10.11375 -64.88918 4098 ft 131 kts 271°
2026-04-15 21:33 10.11387 -64.89849 4282 ft 131 kts 271°
2026-04-15 21:34 10.11399 -64.90764 4460 ft 131 kts 271°
2026-04-15 21:34 10.11411 -64.91659 4639 ft 132 kts 270°
2026-04-15 21:34 10.11424 -64.92600 4824 ft 132 kts 270°
2026-04-15 21:34 10.11435 -64.93523 4998 ft 132 kts 270°
2026-04-15 21:35 10.11447 -64.94456 5177 ft 132 kts 269°
2026-04-15 21:35 10.11459 -64.95393 5367 ft 132 kts 269°
2026-04-15 21:35 10.11471 -64.96326 5548 ft 132 kts 269°
2026-04-15 21:35 10.11485 -64.97268 5746 ft 133 kts 269°
2026-04-15 21:36 10.11496 -64.98201 5935 ft 133 kts 268°
2026-04-15 21:36 10.11506 -64.99137 6121 ft 133 kts 268°
2026-04-15 21:36 10.11516 -65.00073 6306 ft 133 kts 268°
2026-04-15 21:36 10.11529 -65.01015 6481 ft 133 kts 268°
2026-04-15 21:37 10.11540 -65.01956 6668 ft 133 kts 268°
2026-04-15 21:37 10.11551 -65.02884 6840 ft 133 kts 268°
2026-04-15 21:37 10.11562 -65.03830 7032 ft 133 kts 268°
2026-04-15 21:37 10.11573 -65.04763 7209 ft 133 kts 269°
2026-04-15 21:38 10.11584 -65.05712 7378 ft 133 kts 269°
2026-04-15 21:38 10.11596 -65.06653 7560 ft 133 kts 269°
2026-04-15 21:38 10.11609 -65.07591 7743 ft 134 kts 269°
2026-04-15 21:38 10.11619 -65.08527 7953 ft 134 kts 269°
2026-04-15 21:39 10.11633 -65.09478 8139 ft 134 kts 269°
2026-04-15 21:39 10.11645 -65.10429 8324 ft 134 kts 269°
2026-04-15 21:39 10.11655 -65.11375 8509 ft 134 kts 269°
2026-04-15 21:39 10.11668 -65.12311 8686 ft 134 kts 269°
2026-04-15 21:40 10.11680 -65.13252 8877 ft 134 kts 269°
2026-04-15 21:40 10.11690 -65.14208 9059 ft 134 kts 269°
2026-04-15 21:40 10.11704 -65.15155 9236 ft 134 kts 269°
2026-04-15 21:40 10.11714 -65.16099 9415 ft 134 kts 269°
2026-04-15 21:41 10.11726 -65.17042 9606 ft 134 kts 269°
2026-04-15 21:41 10.11740 -65.18000 9803 ft 134 kts 269°
2026-04-15 21:41 10.11752 -65.18939 9989 ft 134 kts 268°
2026-04-15 21:41 10.11763 -65.19880 10177 ft 134 kts 268°
2026-04-15 21:42 10.11775 -65.20827 10373 ft 133 kts 268°
2026-04-15 21:42 10.11784 -65.21800 10387 ft 147 kts 268°
2026-04-15 21:42 10.11788 -65.22878 10387 ft 159 kts 268°
2026-04-15 21:42 10.11798 -65.24035 10386 ft 169 kts 269°
2026-04-15 21:43 10.11813 -65.25243 10379 ft 171 kts 269°
2026-04-15 21:43 10.11829 -65.26438 10381 ft 171 kts 269°
2026-04-15 21:43 10.11843 -65.27647 10383 ft 172 kts 269°
2026-04-15 21:43 10.11858 -65.28874 10381 ft 172 kts 269°
2026-04-15 21:44 10.11876 -65.30083 10376 ft 172 kts 269°
2026-04-15 21:44 10.11891 -65.31255 10378 ft 172 kts 269°
2026-04-15 21:44 10.11904 -65.32468 10378 ft 172 kts 269°
2026-04-15 21:44 10.11920 -65.33672 10384 ft 172 kts 269°
2026-04-15 21:45 10.11936 -65.34899 10386 ft 172 kts 269°
2026-04-15 21:45 10.11949 -65.36114 10388 ft 172 kts 269°
2026-04-15 21:45 10.11961 -65.37328 10390 ft 172 kts 268°
2026-04-15 21:45 10.11975 -65.38547 10393 ft 172 kts 268°
2026-04-15 21:46 10.11991 -65.39766 10394 ft 173 kts 269°
2026-04-15 21:46 10.12004 -65.40979 10401 ft 173 kts 269°
2026-04-15 21:46 10.12018 -65.42204 10404 ft 173 kts 269°
2026-04-15 21:46 10.12030 -65.43428 10392 ft 174 kts 268°
2026-04-15 21:47 10.12044 -65.44660 10398 ft 173 kts 268°
2026-04-15 21:47 10.12058 -65.45884 10394 ft 174 kts 269°
2026-04-15 21:47 10.12074 -65.47107 10393 ft 173 kts 269°
2026-04-15 21:47 10.12086 -65.48329 10395 ft 173 kts 269°
2026-04-15 21:48 10.12102 -65.49538 10395 ft 172 kts 268°
2026-04-15 21:48 10.12114 -65.50761 10404 ft 172 kts 268°
2026-04-15 21:48 10.12127 -65.51965 10408 ft 173 kts 269°
2026-04-15 21:48 10.12141 -65.53200 10405 ft 173 kts 269°
2026-04-15 21:49 10.12155 -65.54423 10403 ft 173 kts 268°
2026-04-15 21:49 10.12168 -65.55637 10405 ft 173 kts 268°
2026-04-15 21:49 10.12184 -65.56861 10399 ft 172 kts 268°
2026-04-15 21:49 10.12199 -65.58079 10406 ft 172 kts 268°
2026-04-15 21:50 10.12209 -65.59282 10407 ft 172 kts 268°
2026-04-15 21:50 10.12221 -65.60500 10409 ft 172 kts 269°
2026-04-15 21:50 10.12235 -65.61704 10412 ft 172 kts 268°
2026-04-15 21:50 10.12249 -65.62925 10416 ft 172 kts 268°
2026-04-15 21:51 10.12261 -65.64140 10410 ft 172 kts 268°
2026-04-15 21:51 10.12274 -65.65360 10412 ft 172 kts 268°
2026-04-15 21:51 10.12287 -65.66564 10414 ft 172 kts 269°
2026-04-15 21:51 10.12300 -65.67782 10416 ft 171 kts 268°
2026-04-15 21:52 10.12313 -65.68998 10422 ft 172 kts 268°
2026-04-15 21:52 10.12325 -65.70210 10417 ft 172 kts 268°
2026-04-15 21:52 10.12338 -65.71413 10420 ft 172 kts 268°
2026-04-15 21:52 10.12350 -65.72629 10415 ft 171 kts 268°
2026-04-15 21:53 10.12367 -65.73833 10427 ft 171 kts 268°
2026-04-15 21:53 10.12380 -65.75043 10425 ft 171 kts 268°
2026-04-15 21:53 10.12388 -65.76252 10423 ft 171 kts 268°
2026-04-15 21:53 10.12400 -65.77466 10426 ft 171 kts 269°
2026-04-15 21:54 10.12413 -65.78672 10424 ft 172 kts 268°
2026-04-15 21:54 10.12428 -65.79883 10421 ft 172 kts 268°
2026-04-15 21:54 10.12438 -65.81104 10422 ft 171 kts 268°
2026-04-15 21:54 10.12452 -65.82304 10424 ft 172 kts 268°
2026-04-15 21:55 10.12463 -65.83528 10420 ft 172 kts 268°
2026-04-15 21:55 10.12478 -65.84744 10414 ft 172 kts 268°
2026-04-15 21:55 10.12489 -65.85948 10415 ft 172 kts 268°
2026-04-15 21:55 10.12500 -65.87152 10419 ft 172 kts 268°
2026-04-15 21:56 10.12514 -65.88380 10418 ft 172 kts 268°
2026-04-15 21:56 10.12524 -65.89584 10409 ft 172 kts 268°
2026-04-15 21:56 10.12534 -65.90802 10413 ft 171 kts 269°
2026-04-15 21:56 10.12548 -65.92001 10416 ft 171 kts 268°
2026-04-15 21:57 10.12561 -65.93215 10422 ft 171 kts 268°
2026-04-15 21:57 10.12573 -65.94425 10413 ft 172 kts 268°
2026-04-15 21:57 10.12585 -65.95628 10418 ft 172 kts 268°
2026-04-15 21:57 10.12598 -65.96849 10406 ft 172 kts 268°
2026-04-15 21:58 10.12609 -65.98056 10409 ft 171 kts 268°
2026-04-15 21:58 10.12620 -65.99266 10404 ft 171 kts 268°
2026-04-15 21:58 10.12634 -66.00427 10414 ft 170 kts 268°
2026-04-15 21:58 10.12647 -66.01634 10411 ft 171 kts 268°
2026-04-15 21:59 10.12657 -66.02840 10422 ft 171 kts 268°
2026-04-15 21:59 10.12664 -66.04045 10412 ft 171 kts 268°
2026-04-15 21:59 10.12677 -66.05204 10417 ft 171 kts 268°
2026-04-15 21:59 10.12689 -66.06396 10420 ft 170 kts 268°
2026-04-15 22:00 10.12701 -66.07606 10424 ft 170 kts 268°
2026-04-15 22:00 10.12709 -66.08809 10427 ft 171 kts 268°
2026-04-15 22:00 10.12723 -66.10021 10432 ft 171 kts 268°
2026-04-15 22:00 10.12733 -66.11232 10309 ft 176 kts 268°
2026-04-15 22:01 10.12740 -66.12483 10108 ft 176 kts 268°
2026-04-15 22:01 10.12751 -66.13729 9911 ft 176 kts 268°
2026-04-15 22:01 10.12763 -66.14969 9729 ft 176 kts 268°
2026-04-15 22:01 10.12776 -66.16208 9543 ft 177 kts 268°
2026-04-15 22:02 10.12790 -66.17461 9364 ft 177 kts 268°
2026-04-15 22:02 10.12802 -66.18706 9187 ft 177 kts 269°
2026-04-15 22:02 10.12810 -66.19949 9004 ft 177 kts 268°
2026-04-15 22:02 10.12822 -66.21207 8822 ft 177 kts 269°
2026-04-15 22:03 10.12829 -66.22456 8645 ft 177 kts 269°
2026-04-15 22:03 10.12842 -66.23709 8462 ft 177 kts 269°
2026-04-15 22:03 10.12853 -66.24960 8290 ft 177 kts 269°
2026-04-15 22:03 10.12867 -66.26211 8110 ft 177 kts 269°
2026-04-15 22:04 10.12875 -66.27453 7937 ft 177 kts 270°
2026-04-15 22:04 10.12888 -66.28720 7765 ft 177 kts 270°
2026-04-15 22:04 10.12900 -66.29960 7596 ft 177 kts 270°
2026-04-15 22:04 10.12914 -66.31217 7426 ft 177 kts 270°
2026-04-15 22:05 10.12927 -66.32434 7250 ft 177 kts 270°
2026-04-15 22:05 10.12938 -66.33672 7070 ft 176 kts 270°
2026-04-15 22:05 10.12949 -66.34917 6897 ft 176 kts 270°
2026-04-15 22:05 10.12959 -66.36163 6717 ft 176 kts 270°
2026-04-15 22:06 10.12969 -66.37393 6550 ft 176 kts 271°
2026-04-15 22:06 10.12981 -66.38650 6377 ft 176 kts 271°
2026-04-15 22:06 10.12993 -66.39886 6212 ft 176 kts 271°
2026-04-15 22:06 10.13002 -66.41125 6045 ft 176 kts 271°
2026-04-15 22:07 10.13012 -66.42368 5877 ft 176 kts 271°
2026-04-15 22:07 10.13024 -66.43610 5705 ft 176 kts 271°
2026-04-15 22:07 10.13034 -66.44778 5539 ft 175 kts 271°
2026-04-15 22:07 10.13043 -66.46024 5358 ft 175 kts 271°
2026-04-15 22:08 10.13055 -66.47244 5187 ft 174 kts 271°
2026-04-15 22:08 10.13064 -66.48476 5019 ft 174 kts 271°
2026-04-15 22:08 10.13073 -66.49704 4851 ft 173 kts 271°
2026-04-15 22:08 10.13084 -66.50916 4676 ft 171 kts 271°
2026-04-15 22:09 10.13095 -66.52093 4669 ft 162 kts 271°
2026-04-15 22:09 10.13107 -66.53217 4673 ft 157 kts 271°
2026-04-15 22:09 10.13115 -66.54307 4671 ft 153 kts 271°
2026-04-15 22:09 10.13125 -66.55381 4669 ft 150 kts 271°
2026-04-15 22:10 10.13132 -66.56440 4665 ft 148 kts 271°
2026-04-15 22:10 10.13141 -66.57474 4662 ft 146 kts 271°
2026-04-15 22:10 10.13148 -66.58495 4661 ft 144 kts 271°
2026-04-15 22:10 10.13154 -66.59518 4661 ft 143 kts 272°
2026-04-15 22:11 10.13164 -66.60523 4661 ft 142 kts 271°
2026-04-15 22:11 10.13171 -66.61513 4660 ft 141 kts 271°
2026-04-15 22:11 10.13180 -66.62506 4660 ft 138 kts 271°
2026-04-15 22:11 10.13179 -66.63418 4637 ft 116 kts 270°
2026-04-15 22:12 10.13196 -66.64253 4659 ft 124 kts 272°
2026-04-15 22:12 10.13207 -66.65159 4656 ft 131 kts 271°
2026-04-15 22:12 10.13209 -66.66103 4646 ft 136 kts 271°
2026-04-15 22:12 10.13215 -66.67075 4603 ft 140 kts 271°
2026-04-15 22:13 10.13220 -66.68089 4466 ft 146 kts 271°
2026-04-15 22:13 10.13226 -66.69127 4324 ft 148 kts 270°
2026-04-15 22:13 10.13235 -66.70167 4181 ft 147 kts 271°
2026-04-15 22:13 10.13243 -66.71202 4039 ft 146 kts 271°
2026-04-15 22:14 10.13252 -66.72235 3892 ft 146 kts 271°
2026-04-15 22:14 10.13260 -66.73265 3745 ft 146 kts 271°
2026-04-15 22:14 10.13267 -66.74289 3609 ft 145 kts 270°
2026-04-15 22:14 10.13119 -66.75288 3468 ft 144 kts 248°
2026-04-15 22:15 10.12726 -66.76218 3329 ft 144 kts 246°
2026-04-15 22:15 10.12322 -66.77155 3191 ft 144 kts 246°
2026-04-15 22:15 10.11916 -66.78091 2993 ft 148 kts 245°
2026-04-15 22:15 10.11503 -66.79054 2808 ft 149 kts 245°
2026-04-15 22:16 10.11088 -66.80029 2623 ft 150 kts 246°
2026-04-15 22:16 10.10854 -66.81047 2432 ft 150 kts 278°
2026-04-15 22:16 10.11336 -66.81939 2243 ft 143 kts 323°
2026-04-15 22:16 10.12187 -66.82346 2037 ft 130 kts 359°
2026-04-15 22:17 10.12928 -66.82013 1767 ft 118 kts 59°
2026-04-15 22:17 10.12999 -66.81257 1527 ft 98 kts 98°
2026-04-15 22:17 10.12955 -66.80640 1267 ft 85 kts 86°
2026-04-15 22:17 10.13025 -66.80029 949 ft 92 kts 77°
2026-04-15 22:18 10.13175 -66.79401 687 ft 88 kts 77°
2026-04-15 22:18 10.13286 -66.78919 651 ft 38 kts 80°
2026-04-15 22:18 10.13331 -66.78844 651 ft 6 kts 348°
2026-04-15 22:18 10.13358 -66.78849 651 ft 4 kts 351°
2026-04-15 22:19 10.13373 -66.78853 652 ft 0 kts 333°
2026-04-15 22:19 10.13374 -66.78854 652 ft 0 kts 333°
2026-04-15 22:19 10.13375 -66.78854 652 ft 0 kts 334°
2026-04-15 22:20 10.13386 -66.78858 652 ft 7 kts 351°
2026-04-15 22:20 10.13430 -66.78865 652 ft 5 kts 353°
2026-04-15 22:20 10.13449 -66.78863 653 ft 0 kts 338°
2026-04-15 22:21 10.13448 -66.78863 653 ft 0 kts 338°
2026-04-15 22:22 10.13449 -66.78863 653 ft 0 kts 338°
2026-04-15 22:23 10.13442 -66.78860 653 ft 0 kts 342°
2026-04-15 22:24 10.13443 -66.78861 653 ft 0 kts 320°